Satellite-Ground Cal/Val Region Overpasses Predictions

Prediction of Satellite NPP Overpassing Cal/Val Region: PacNW

Region Location: (Latitude: 10.00, Longitude: 139.50) to (Latitude: 22.70, Longitude: 165.60).

Table of predicted overpasses for the next 14.0 days since TLE Epoch: 1/29/2022
Interval Starting Time Starting Location Ending Time Ending Location
1 01/29/2022 15:30:26 ( 22.65, 152.39) 01/29/2022 15:34:01 ( 10.03, 149.39)
2 01/30/2022 02:39:30 ( 10.02, 159.93) 01/30/2022 02:43:06 ( 22.70, 156.92)
3 01/30/2022 15:11:22 ( 22.65, 157.16) 01/30/2022 15:14:57 ( 10.03, 154.16)
4 01/31/2022 02:20:26 ( 10.02, 164.70) 01/31/2022 02:24:02 ( 22.70, 161.68)
5 01/31/2022 14:52:19 ( 22.65, 161.92) 01/31/2022 14:55:54 ( 10.03, 158.92)
6 02/01/2022 03:42:53 ( 10.03, 144.08) 02/01/2022 03:46:28 ( 22.65, 141.08)
7 02/01/2022 14:34:31 ( 18.20, 165.59) 02/01/2022 14:36:50 ( 10.03, 163.68)
8 02/01/2022 16:14:44 ( 22.70, 141.32) 02/01/2022 16:16:52 ( 15.19, 139.50)
9 02/02/2022 03:23:49 ( 10.03, 148.85) 02/02/2022 03:27:24 ( 22.65, 145.85)
10 02/02/2022 15:55:42 ( 22.64, 146.07) 02/02/2022 15:59:17 ( 10.02, 143.07)
11 02/03/2022 03:04:46 ( 10.03, 153.61) 02/03/2022 03:08:21 ( 22.65, 150.61)
12 02/03/2022 15:36:38 ( 22.64, 150.83) 02/03/2022 15:40:13 ( 10.02, 147.83)
13 02/04/2022 02:45:42 ( 10.02, 158.37) 02/04/2022 02:49:17 ( 22.65, 155.37)
14 02/04/2022 15:17:35 ( 22.64, 155.60) 02/04/2022 15:21:10 ( 10.02, 152.60)
15 02/05/2022 02:26:39 ( 10.02, 163.14) 02/05/2022 02:30:14 ( 22.65, 160.14)
16 02/05/2022 14:58:32 ( 22.64, 160.36) 02/05/2022 15:02:07 ( 10.02, 157.36)
17 02/06/2022 02:10:22 ( 19.83, 165.60) 02/06/2022 02:11:10 ( 22.65, 164.90)
18 02/06/2022 03:49:05 ( 10.04, 142.52) 02/06/2022 03:52:40 ( 22.66, 139.52)
19 02/06/2022 14:39:28 ( 22.64, 165.12) 02/06/2022 14:43:03 ( 10.03, 162.13)
20 02/06/2022 16:20:57 ( 22.69, 139.76) 02/06/2022 16:21:14 ( 21.69, 139.51)
21 02/07/2022 03:30:02 ( 10.04, 147.29) 02/07/2022 03:33:37 ( 22.66, 144.29)
22 02/07/2022 16:01:54 ( 22.69, 144.53) 02/07/2022 16:05:30 ( 10.01, 141.51)
23 02/08/2022 03:10:58 ( 10.04, 152.05) 02/08/2022 03:14:33 ( 22.66, 149.05)
24 02/08/2022 15:42:50 ( 22.69, 149.29) 02/08/2022 15:46:26 ( 10.01, 146.28)
25 02/09/2022 02:51:55 ( 10.04, 156.81) 02/09/2022 02:55:30 ( 22.67, 153.81)
26 02/09/2022 15:23:47 ( 22.69, 154.05) 02/09/2022 15:27:23 ( 10.01, 151.04)
27 02/10/2022 02:32:51 ( 10.04, 161.58) 02/10/2022 02:36:26 ( 22.67, 158.58)
28 02/10/2022 15:04:43 ( 22.69, 158.82) 02/10/2022 15:08:19 ( 10.01, 155.80)
29 02/11/2022 02:14:43 ( 13.28, 165.60) 02/11/2022 02:17:23 ( 22.67, 163.34)
30 02/11/2022 03:55:18 ( 10.06, 140.96) 02/11/2022 03:57:05 ( 16.35, 139.50)
